TimeEST,TemperatureF,Dew PointF,Humidity,Sea Level PressureIn,VisibilityMPH,Wind Direction,Wind SpeedMPH,Gust SpeedMPH,PrecipitationIn,Events,Conditions,WindDirDegrees,DateUTC
12:15 AM,51.8,46.4,82,30.14,10.0,Calm,Calm,-,N/A,Rain,Light Rain,0,2012-12-16 05:15:00
1:16 AM,51.8,46.4,82,30.12,7.0,SE,4.6,-,N/A,Rain,Light Rain,130,2012-12-16 06:16:00
1:35 AM,51.8,48.2,88,30.12,10.0,SE,3.5,-,0.01,Rain,Light Rain,140,2012-12-16 06:35:00
1:55 AM,51.8,48.2,88,30.12,7.0,Calm,Calm,-,0.02,Rain,Light Rain,0,2012-12-16 06:55:00
2:15 AM,50.0,48.2,94,30.12,5.0,Calm,Calm,-,0.01,,Overcast,0,2012-12-16 07:15:00
2:35 AM,50.0,48.2,94,30.11,5.0,Calm,Calm,-,0.01,Rain,Light Rain,0,2012-12-16 07:35:00
2:55 AM,50.0,48.2,94,30.11,3.0,East,3.5,-,0.02,Rain,Heavy Rain,80,2012-12-16 07:55:00
3:15 AM,50.0,48.2,94,30.09,5.0,East,5.8,-,0.04,Rain,Rain,80,2012-12-16 08:15:00
3:55 AM,50.0,48.2,94,30.08,5.0,East,3.5,-,0.07,Rain,Light Rain,80,2012-12-16 08:55:00
4:15 AM,50.0,48.2,94,30.08,5.0,Calm,Calm,-,N/A,Rain,Light Rain,0,2012-12-16 09:15:00
4:35 AM,50.0,48.2,94,30.09,4.0,Calm,Calm,-,0.02,Rain,Rain,0,2012-12-16 09:35:00
4:55 AM,50.0,48.2,94,30.08,3.0,Calm,Calm,-,0.05,Rain,Light Rain,0,2012-12-16 09:55:00
5:15 AM,50.0,48.2,94,30.08,3.0,Calm,Calm,-,N/A,,Overcast,0,2012-12-16 10:15:00
5:36 AM,50.0,48.2,94,30.07,4.0,Calm,Calm,-,0.01,Rain,Rain,0,2012-12-16 10:36:00
5:55 AM,50.0,48.2,94,30.07,5.0,East,4.6,-,0.03,Rain,Light Rain,80,2012-12-16 10:55:00
6:15 AM,50.0,48.2,94,30.08,4.0,ESE,3.5,-,0.06,Rain,Rain,110,2012-12-16 11:15:00
6:35 AM,51.8,48.2,88,30.07,5.0,SE,4.6,-,0.13,Rain,Rain,130,2012-12-16 11:35:00
6:55 AM,51.8,48.2,88,30.07,7.0,Calm,Calm,-,0.17,Rain,Rain,0,2012-12-16 11:55:00
7:15 AM,51.8,48.2,88,30.06,5.0,Calm,Calm,-,0.01,Rain,Rain,0,2012-12-16 12:15:00
7:35 AM,51.8,50.0,94,30.06,5.0,Calm,Calm,-,0.02,Rain,Light Rain,0,2012-12-16 12:35:00
8:15 AM,51.8,50.0,94,30.05,4.0,Calm,Calm,-,N/A,,Drizzle,0,2012-12-16 13:15:00
8:35 AM,53.6,51.8,94,30.04,3.0,Calm,Calm,-,0.01,,Drizzle,0,2012-12-16 13:35:00
8:55 AM,53.6,51.8,94,30.04,3.0,Calm,Calm,-,0.02,Rain,Light Rain,0,2012-12-16 13:55:00
9:15 AM,53.6,51.8,94,30.06,2.5,Calm,Calm,-,N/A,,Light Drizzle,0,2012-12-16 14:15:00
9:35 AM,53.6,51.8,94,30.06,2.5,WSW,3.5,-,N/A,,Overcast,240,2012-12-16 14:35:00
9:55 AM,53.6,51.8,94,30.05,1.8,Calm,Calm,-,N/A,,Overcast,0,2012-12-16 14:55:00
10:15 AM,53.6,51.8,94,30.04,0.5,Calm,Calm,-,N/A,Fog,Fog,0,2012-12-16 15:15:00
10:35 AM,53.6,51.8,94,30.03,0.2,Calm,Calm,-,N/A,Fog,Fog,0,2012-12-16 15:35:00
10:56 AM,55.4,53.6,94,30.02,0.5,SSE,4.6,-,N/A,Fog,Fog,160,2012-12-16 15:56:00
11:15 AM,55.4,53.6,94,30.00,3.0,Calm,Calm,-,N/A,,Overcast,0,2012-12-16 16:15:00
11:37 AM,55.4,53.6,94,29.99,7.0,Calm,Calm,-,N/A,,Overcast,0,2012-12-16 16:37:00
11:55 AM,55.4,53.6,94,29.99,10.0,Calm,Calm,-,N/A,,Overcast,0,2012-12-16 16:55:00
12:15 PM,57.2,55.4,94,29.98,10.0,ESE,3.5,-,N/A,,Overcast,120,2012-12-16 17:15:00
12:35 PM,57.2,55.4,94,29.98,10.0,ESE,5.8,-,N/A,,Overcast,120,2012-12-16 17:35:00
12:55 PM,57.2,53.6,88,29.98,10.0,ESE,4.6,-,N/A,,Overcast,120,2012-12-16 17:55:00
1:15 PM,57.2,53.6,88,29.97,10.0,ESE,3.5,-,N/A,,Overcast,120,2012-12-16 18:15:00
1:35 PM,57.2,55.4,94,29.97,10.0,ESE,4.6,-,N/A,,Overcast,120,2012-12-16 18:35:00
1:55 PM,57.2,53.6,88,29.96,10.0,ESE,6.9,-,N/A,,Overcast,110,2012-12-16 18:55:00
2:15 PM,57.2,53.6,88,29.95,10.0,ESE,4.6,-,N/A,,Overcast,120,2012-12-16 19:15:00
2:37 PM,57.2,53.6,88,29.94,10.0,ESE,4.6,-,N/A,,Mostly Cloudy,120,2012-12-16 19:37:00
2:55 PM,57.2,53.6,88,29.94,10.0,ESE,5.8,-,N/A,,Mostly Cloudy,110,2012-12-16 19:55:00
3:15 PM,57.2,53.6,88,29.94,10.0,ESE,4.6,-,N/A,,Mostly Cloudy,120,2012-12-16 20:15:00
3:35 PM,57.2,53.6,88,29.95,10.0,ESE,4.6,-,N/A,,Scattered Clouds,110,2012-12-16 20:35:00
3:56 PM,57.2,53.6,88,29.95,10.0,ESE,3.5,-,N/A,,Mostly Cloudy,120,2012-12-16 20:56:00
4:15 PM,55.4,53.6,94,29.97,10.0,ESE,4.6,-,N/A,,Overcast,120,2012-12-16 21:15:00
4:35 PM,55.4,53.6,94,29.97,10.0,ESE,4.6,-,N/A,,Overcast,120,2012-12-16 21:35:00
4:55 PM,55.4,53.6,94,29.95,10.0,ESE,4.6,-,N/A,,Light Drizzle,120,2012-12-16 21:55:00
5:15 PM,55.4,53.6,94,29.94,7.0,Calm,Calm,-,N/A,Rain,Rain,0,2012-12-16 22:15:00
5:35 PM,55.4,53.6,94,29.94,5.0,ESE,4.6,-,N/A,Rain,Light Rain,110,2012-12-16 22:35:00
5:55 PM,55.4,53.6,94,29.93,5.0,ESE,5.8,-,N/A,,Overcast,110,2012-12-16 22:55:00
6:15 PM,55.4,53.6,94,29.92,3.0,ESE,5.8,-,N/A,,Overcast,110,2012-12-16 23:15:00
6:35 PM,55.4,53.6,94,29.91,3.0,ESE,5.8,-,N/A,,Overcast,110,2012-12-16 23:35:00
6:55 PM,55.4,53.6,94,29.91,2.5,ESE,5.8,-,N/A,Rain,Rain,110,2012-12-16 23:55:00
7:15 PM,55.4,53.6,94,29.91,4.0,East,9.2,-,N/A,,Overcast,100,2012-12-17 00:15:00
7:35 PM,55.4,53.6,94,29.91,7.0,ESE,6.9,-,N/A,,Overcast,110,2012-12-17 00:35:00
7:55 PM,55.4,53.6,94,29.91,10.0,ESE,8.1,-,N/A,,Overcast,110,2012-12-17 00:55:00
8:16 PM,55.4,53.6,94,29.91,10.0,ESE,4.6,-,N/A,Rain,Light Rain,110,2012-12-17 01:16:00
8:35 PM,55.4,53.6,94,29.92,10.0,ESE,8.1,-,N/A,Rain,Light Rain,110,2012-12-17 01:35:00
8:55 PM,55.4,53.6,94,29.91,10.0,ESE,4.6,-,0.01,,Drizzle,110,2012-12-17 01:55:00
9:35 PM,55.4,53.6,94,29.90,7.0,Calm,Calm,-,0.01,,Drizzle,0,2012-12-17 02:35:00
9:55 PM,55.4,53.6,94,29.90,5.0,Calm,Calm,-,0.01,Rain,Light Rain,0,2012-12-17 02:55:00
10:15 PM,55.4,53.6,94,29.91,5.0,Calm,Calm,-,0.02,Rain,Light Rain,0,2012-12-17 03:15:00
10:35 PM,55.4,53.6,94,29.92,5.0,Calm,Calm,-,0.02,Rain,Light Rain,0,2012-12-17 03:35:00
10:55 PM,55.4,53.6,94,29.90,5.0,ESE,3.5,-,0.04,Rain,Light Rain,120,2012-12-17 03:55:00
11:16 PM,55.4,53.6,94,29.90,5.0,ESE,3.5,-,0.02,Rain,Light Rain,120,2012-12-17 04:16:00
11:35 PM,55.4,53.6,94,29.89,4.0,ESE,3.5,-,0.02,,Drizzle,120,2012-12-17 04:35:00
11:55 PM,55.4,53.6,94,29.89,4.0,Calm,Calm,-,0.02,Rain,Light Rain,0,2012-12-17 04:55:00